Home   Weather   Santorini   Past weeks
Flag for Greece

Past Weather in Santorini, Greece — Yesterday and Last 2 Weeks

Now
55 °F

Passing clouds.


Feels Like: 53 °F
Forecast: 57 / 54 °F
Wind: 9 mph from Southwest

Location: Santorini Island

Current Time: Jan 20, 2019 at 9:51:06 pm

Latest Report: Jan 20, 2019 at 8:50 pm


Visibility: N/A

Pressure: 29.98 "Hg

Humidity: 72%

Dew Point: 46 °F

Location of SantoriniLocation

Past Weather in Santorini — Graph

°F

Santorini Temperature Yesterday

Maximum temperature yesterday: 59 °F (at 11:20 am)
Minimum temperature yesterday: 50 °F (at 7:20 pm)
Average temperature yesterday: 55 °F

High & Low Weather Summary for the Past Weeks

 TemperatureHumidityPressure
High63 °F (Jan 11, 10:20 am)100% (Jan 10, 7:20 am)30.18 "Hg (Jan 10, 7:20 am)
Low36 °F (Jan 9, 2:20 am)40% (Jan 16, 3:50 pm)29.21 "Hg (Jan 15, 7:20 am)
Average52 °F63%29.91 "Hg
* Reported Jan 5 8:20 pm — Jan 20 8:20 pm, Santorini. Weather by CustomWeather, © 2019

Note: Actual official high and low records may vary slightly from our data, if they occured in-between our weather recording intervals... More about our weather records

Advertising

Santorini Weather History for the Previous 24 Hours

Scroll right to see more
 ConditionsComfort  
Time TempWeatherWind HumidityBarometerVisibility
8:20 pm
Sun, Jan 20
55 °FLight rain. Passing clouds.8 mph72%29.98 "HgN/A
7:50 pm57 °FPassing clouds.13 mph67%29.98 "HgN/A
7:20 pm57 °FPassing clouds.10 mph67%29.98 "HgN/A
6:50 pm57 °FPassing clouds.7 mph67%29.98 "HgN/A
6:20 pm57 °FPassing clouds.5 mph67%29.98 "HgN/A
5:50 pm59 °FPassing clouds.3 mph59%29.98 "HgN/A
5:20 pm59 °FPassing clouds.8 mph55%29.98 "HgN/A
4:50 pm59 °FPassing clouds.9 mph59%29.98 "HgN/A
4:20 pm61 °FPassing clouds.10 mph55%30.01 "HgN/A
3:20 pm61 °FPassing clouds.7 mph55%30.01 "HgN/A
2:50 pm61 °FPassing clouds.7 mph55%30.01 "HgN/A
2:20 pm61 °FPassing clouds.9 mph52%30.01 "HgN/A
1:50 pm61 °FPassing clouds.12 mph52%30.04 "HgN/A
1:20 pm61 °FPassing clouds.13 mph59%30.04 "HgN/A
12:50 pm61 °FPassing clouds.12 mph59%30.07 "HgN/A
12:20 pm61 °FPassing clouds.12 mph59%30.07 "HgN/A
11:50 am59 °FPassing clouds.14 mph63%30.07 "HgN/A
11:20 am59 °FPassing clouds.16 mph59%30.09 "HgN/A
10:50 am59 °FPassing clouds.17 mph59%30.09 "HgN/A
10:20 am59 °FPassing clouds.16 mph59%30.09 "HgN/A
9:50 am57 °FPassing clouds.14 mph63%30.07 "HgN/A
9:20 am57 °FPassing clouds.14 mph63%30.07 "HgN/A
8:50 am57 °FPassing clouds.13 mph67%30.07 "HgN/A
8:20 am57 °FPassing clouds.9 mph67%30.07 "HgN/A
7:50 am57 °FPassing clouds.8 mph63%30.07 "HgN/A
7:20 am57 °FPassing clouds.12 mph63%30.07 "HgN/A
6:50 am57 °FPassing clouds.14 mph63%30.07 "HgN/A
6:20 am55 °FPassing clouds.8 mph67%30.07 "HgN/A
5:50 am55 °FLight rain. Overcast.8 mph67%30.07 "HgN/A
5:20 am55 °FLight rain. Overcast.9 mph63%30.04 "HgN/A
4:50 am55 °FLight rain. Overcast.8 mph63%30.07 "HgN/A
4:20 am55 °FLight rain. Overcast.12 mph63%30.07 "HgN/A
3:50 am55 °FLight rain. Overcast.7 mph63%30.07 "HgN/A
3:20 am55 °FLight rain. Overcast.8 mph63%30.07 "HgN/A
2:50 am55 °FLight rain. Overcast.10 mph63%30.07 "HgN/A
2:20 am57 °FLight rain. Overcast.9 mph59%30.07 "HgN/A
1:20 am57 °FLight rain. Overcast.10 mph59%30.07 "HgN/A
12:50 am55 °FLight rain. Overcast.7 mph63%30.09 "HgN/A
12:20 am57 °FLight rain. Overcast.8 mph63%30.09 "HgN/A
11:50 pm
Sat, Jan 19
55 °FLight rain. Overcast.6 mph67%30.09 "HgN/A
11:20 pm54 °FLight rain. Overcast.5 mph72%30.09 "HgN/A
10:50 pm55 °FLight rain. Overcast.5 mph67%30.09 "HgN/A
10:20 pm54 °FLight rain. Overcast.3 mph67%30.09 "HgN/A
9:50 pm55 °FLight rain. Overcast.6 mph63%30.09 "HgN/A
9:20 pm54 °FLight rain. Overcast.6 mph67%30.09 "HgN/A
Weather by CustomWeather, © 2019

See weather overview

LIVE TOTAL LUNAR ECLIPSE – Watch the eclipse as it happens